Вернуться в каталог

ANIK F3

АктивенСвязьGEO
NORAD 31102·PAYLOAD·🇨🇦 Canada

Запущен Apr 9, 2007 с Baikonur Cosmodrome

Loading…

TLE

СвежийSource: CelesTrak SupGP

Эпоха: Sep 14, 2026, 04:59 UTC

1 31102C 07009A   26257.20833333  .00000089  00000+0  00000+0 0  2572
2 31102   1.4216  82.6424 0002603  87.6386 139.2057  1.00273583    15

Отслеживайте ANIK F3 в реальном времени с AllMySat

Download on the App Store